Location: *
(38.4303°S, 157.0822°W)
Time: 23:04:52
(UTC+00:00)

Cosmos 1461 - Pass Details

Date: 21 May 2024
Orbit: 499 x 582 km, 65.0° (Epoch: 12 June)

Event Time Altitude Azimuth Distance (km) Brightness Sun altitude
Exits shadow 16:47:48 10° 246° (WSW) 1,907 4.9 -8.3°
Maximum altitude 16:50:46 19° 290° (WNW) 1,430 4.5 -7.7°
Drops below altitude 10° 16:53:47 10° 335° (NNW) 1,900 5.5 -7.2°
Sets 16:56:31 0° 353° (N) 2,778 6.6 -6.7°
